AVA167 SKBO-SLVR

Flight info

Callsign AVA167
Flight time 3h 31m
Altitude 35000
Route SOA1A POVSO DCT PABON UP530 LET UP525 RCO UN420 PAKES DCT
Aircraft A320/M-SDE3FGHIRWY/LB1

Departure

Time 2026-05-04 14:34
Airport El Dorado International Airport (SKBO)

Arrival

Time 2026-05-04 18:06
Airport Viru Viru International Airport (SLVR)
Time Latitude Longitude Altitude Speed Heading
2026-05-04 14:00 4.70106 -74.14437 8366 ft 0 kts 127°
2026-05-04 14:24 4.70114 -74.14446 8366 ft 4 kts 127°
2026-05-04 14:24 4.70130 -74.14468 8366 ft 4 kts 124°
2026-05-04 14:24 4.70143 -74.14492 8366 ft 4 kts 107°
2026-05-04 14:25 4.70144 -74.14512 8366 ft 3 kts 41°
2026-05-04 14:25 4.70142 -74.14514 8366 ft 0 kts 37°
2026-05-04 14:28 4.70157 -74.14503 8366 ft 7 kts 37°
2026-05-04 14:29 4.70306 -74.14391 8366 ft 17 kts 37°
2026-05-04 14:29 4.70446 -74.14353 8367 ft 9 kts 307°
2026-05-04 14:30 4.70497 -74.14421 8366 ft 15 kts 307°
2026-05-04 14:30 4.70569 -74.14516 8366 ft 19 kts 307°
2026-05-04 14:30 4.70761 -74.14768 8366 ft 26 kts 307°
2026-05-04 14:31 4.70869 -74.14912 8366 ft 24 kts 307°
2026-05-04 14:31 4.71039 -74.15137 8366 ft 16 kts 306°
2026-05-04 14:32 4.71174 -74.15218 8366 ft 8 kts 354°
2026-05-04 14:32 4.71234 -74.15224 8366 ft 12 kts 355°
2026-05-04 14:32 4.71306 -74.15206 8366 ft 9 kts 44°
2026-05-04 14:32 4.71302 -74.15158 8365 ft 6 kts 125°
2026-05-04 14:33 4.71294 -74.15146 8365 ft 0 kts 125°
2026-05-04 14:33 4.71284 -74.15132 8365 ft 14 kts 125°
2026-05-04 14:33 4.71087 -74.14873 8363 ft 80 kts 127°
2026-05-04 14:33 4.70626 -74.14262 8367 ft 137 kts 127°
2026-05-04 14:34 4.69947 -74.13366 8368 ft 183 kts 127°
2026-05-04 14:34 4.69112 -74.12272 8723 ft 204 kts 128°
2026-05-04 14:34 4.68103 -74.11291 9586 ft 206 kts 153°
2026-05-04 14:34 4.66666 -74.11101 9975 ft 220 kts 193°
2026-05-04 14:35 4.65732 -74.11560 10072 ft 234 kts 221°
2026-05-04 14:35 4.64740 -74.12905 10285 ft 247 kts 242°
2026-05-04 14:35 4.64046 -74.14495 10652 ft 251 kts 248°
2026-05-04 14:35 4.63214 -74.16678 11141 ft 255 kts 246°
2026-05-04 14:36 4.62770 -74.17798 11404 ft 256 kts 245°
2026-05-04 14:36 4.62073 -74.19454 11853 ft 259 kts 244°
2026-05-04 14:36 4.61438 -74.21156 12348 ft 264 kts 257°
2026-05-04 14:36 4.61093 -74.23041 12493 ft 285 kts 258°
2026-05-04 14:37 4.60721 -74.25067 12623 ft 305 kts 258°
2026-05-04 14:37 4.60161 -74.27125 12940 ft 313 kts 240°
2026-05-04 14:37 4.58786 -74.28832 13440 ft 313 kts 219°
2026-05-04 14:37 4.57196 -74.30301 13997 ft 317 kts 222°
2026-05-04 14:38 4.55640 -74.31888 14526 ft 321 kts 224°
2026-05-04 14:38 4.54103 -74.33529 14997 ft 324 kts 224°
2026-05-04 14:38 4.52400 -74.35002 15406 ft 327 kts 206°
2026-05-04 14:38 4.50200 -74.35621 15511 ft 336 kts 177°
2026-05-04 14:39 4.47909 -74.35115 15620 ft 345 kts 151°
2026-05-04 14:39 4.45823 -74.33846 15730 ft 358 kts 146°
2026-05-04 14:39 4.43640 -74.32548 15847 ft 373 kts 155°
2026-05-04 14:40 4.38514 -74.31231 16455 ft 386 kts 166°
2026-05-04 14:40 4.35885 -74.30657 16902 ft 388 kts 165°
2026-05-04 14:40 4.33234 -74.30082 17312 ft 391 kts 166°
2026-05-04 14:40 4.30565 -74.29504 17738 ft 394 kts 165°
2026-05-04 14:41 4.27873 -74.28917 18151 ft 397 kts 167°
2026-05-04 14:41 4.25159 -74.28325 18543 ft 401 kts 165°
2026-05-04 14:41 4.19670 -74.27125 19222 ft 406 kts 166°
2026-05-04 14:42 4.14124 -74.25912 19929 ft 410 kts 166°
2026-05-04 14:42 4.11329 -74.25305 20275 ft 412 kts 166°
2026-05-04 14:42 4.08516 -74.24694 20601 ft 415 kts 166°
2026-05-04 14:43 4.05692 -74.24080 20942 ft 417 kts 166°
2026-05-04 14:43 4.02844 -74.23457 21270 ft 419 kts 165°
2026-05-04 14:43 3.99999 -74.22834 21644 ft 419 kts 165°
2026-05-04 14:43 3.97146 -74.22208 21980 ft 420 kts 165°
2026-05-04 14:44 3.94334 -74.21400 22282 ft 420 kts 156°
2026-05-04 14:44 3.91703 -74.20118 22582 ft 421 kts 147°
2026-05-04 14:44 3.89254 -74.18572 22864 ft 423 kts 146°
2026-05-04 14:44 3.86759 -74.16987 23172 ft 424 kts 146°
2026-05-04 14:45 3.84259 -74.15400 23493 ft 426 kts 146°
2026-05-04 14:45 3.81746 -74.13808 23786 ft 428 kts 146°
2026-05-04 14:45 3.79218 -74.12211 23997 ft 430 kts 146°
2026-05-04 14:45 3.76678 -74.10607 24222 ft 433 kts 146°
2026-05-04 14:46 3.74118 -74.08989 24462 ft 435 kts 146°
2026-05-04 14:46 3.71558 -74.07370 24666 ft 436 kts 146°
2026-05-04 14:46 3.68991 -74.05747 24943 ft 437 kts 146°
2026-05-04 14:46 3.66412 -74.04116 25189 ft 439 kts 146°
2026-05-04 14:47 3.63830 -74.02483 25380 ft 440 kts 146°
2026-05-04 14:47 3.61239 -74.00842 25612 ft 442 kts 146°
2026-05-04 14:47 3.58634 -73.99190 25839 ft 444 kts 146°
2026-05-04 14:47 3.56023 -73.97535 26059 ft 445 kts 146°
2026-05-04 14:48 3.53398 -73.95874 26273 ft 447 kts 146°
2026-05-04 14:48 3.50769 -73.94215 26497 ft 448 kts 146°
2026-05-04 14:48 3.48124 -73.92546 26689 ft 450 kts 146°
2026-05-04 14:48 3.45506 -73.90894 26908 ft 451 kts 146°
2026-05-04 14:49 3.42846 -73.89213 27114 ft 453 kts 146°
2026-05-04 14:49 3.40178 -73.87527 27323 ft 454 kts 146°
2026-05-04 14:49 3.37503 -73.85836 27587 ft 456 kts 146°
2026-05-04 14:49 3.34813 -73.84134 27962 ft 458 kts 146°
2026-05-04 14:50 3.32111 -73.82424 28212 ft 460 kts 146°
2026-05-04 14:50 3.29402 -73.80710 28386 ft 462 kts 146°
2026-05-04 14:50 3.26685 -73.78990 28540 ft 463 kts 146°
2026-05-04 14:50 3.23961 -73.77265 28717 ft 464 kts 146°
2026-05-04 14:51 3.21219 -73.75531 28883 ft 466 kts 146°
2026-05-04 14:51 3.18478 -73.73798 29057 ft 467 kts 146°
2026-05-04 14:51 3.15727 -73.72061 29240 ft 468 kts 146°
2026-05-04 14:51 3.12967 -73.70318 29410 ft 470 kts 146°
2026-05-04 14:52 3.10198 -73.68569 29734 ft 471 kts 147°
2026-05-04 14:52 3.07422 -73.66816 30243 ft 471 kts 146°
2026-05-04 14:52 3.04652 -73.65065 30652 ft 468 kts 146°
2026-05-04 14:52 3.01902 -73.63328 30877 ft 468 kts 146°
2026-05-04 14:53 2.99151 -73.61591 31118 ft 467 kts 146°
2026-05-04 14:53 2.96438 -73.59880 31337 ft 466 kts 146°
2026-05-04 14:53 2.93699 -73.58150 31557 ft 466 kts 146°
2026-05-04 14:53 2.90960 -73.56419 31793 ft 465 kts 146°
2026-05-04 14:54 2.88231 -73.54694 32031 ft 464 kts 146°
2026-05-04 14:54 2.85507 -73.52971 32268 ft 463 kts 146°
2026-05-04 14:54 2.82788 -73.51252 32512 ft 462 kts 146°
2026-05-04 14:54 2.80069 -73.49533 32735 ft 461 kts 146°
2026-05-04 14:55 2.77359 -73.47822 32965 ft 461 kts 146°
2026-05-04 14:55 2.74648 -73.46114 33205 ft 460 kts 146°
2026-05-04 14:55 2.71942 -73.44409 33440 ft 459 kts 146°
2026-05-04 14:55 2.69240 -73.42707 33669 ft 458 kts 146°
2026-05-04 14:56 2.66543 -73.41008 33912 ft 458 kts 146°
2026-05-04 14:56 2.63855 -73.39312 34126 ft 457 kts 146°
2026-05-04 14:56 2.61165 -73.37615 34323 ft 457 kts 146°
2026-05-04 14:56 2.58478 -73.35918 34513 ft 456 kts 146°
2026-05-04 14:57 2.55799 -73.34224 34695 ft 456 kts 146°
2026-05-04 14:57 2.53113 -73.32527 34873 ft 456 kts 146°
2026-05-04 14:57 2.50430 -73.30834 34989 ft 456 kts 146°
2026-05-04 14:57 2.47742 -73.29138 35029 ft 457 kts 146°
2026-05-04 14:58 2.42354 -73.25739 35027 ft 458 kts 146°
2026-05-04 14:58 2.36959 -73.22332 35029 ft 458 kts 146°
2026-05-04 14:59 2.31566 -73.18932 35029 ft 458 kts 146°
2026-05-04 15:00 2.23483 -73.13831 35026 ft 458 kts 146°
2026-05-04 15:00 2.18095 -73.10432 35025 ft 458 kts 146°
2026-05-04 15:01 2.10015 -73.05340 35027 ft 458 kts 146°
2026-05-04 15:01 2.04625 -73.01938 35027 ft 458 kts 146°
2026-05-04 15:02 1.99231 -72.98537 35032 ft 458 kts 146°
2026-05-04 15:02 1.93831 -72.95138 35033 ft 458 kts 146°
2026-05-04 15:03 1.88442 -72.91735 35038 ft 458 kts 146°
2026-05-04 15:03 1.83043 -72.88327 35039 ft 458 kts 146°
2026-05-04 15:04 1.77687 -72.84949 35042 ft 458 kts 146°
2026-05-04 15:04 1.72294 -72.81553 35043 ft 458 kts 146°
2026-05-04 15:05 1.66904 -72.78153 35044 ft 458 kts 146°
2026-05-04 15:05 1.61515 -72.74754 35044 ft 458 kts 146°
2026-05-04 15:06 1.56120 -72.71356 35048 ft 458 kts 146°
2026-05-04 15:07 1.48027 -72.66266 35048 ft 458 kts 146°
2026-05-04 15:07 1.42633 -72.62868 35053 ft 458 kts 146°
2026-05-04 15:08 1.37247 -72.59468 35055 ft 457 kts 146°
2026-05-04 15:08 1.31874 -72.56080 35057 ft 457 kts 146°
2026-05-04 15:09 1.26505 -72.52697 35048 ft 456 kts 146°
2026-05-04 15:09 1.21174 -72.49339 35047 ft 456 kts 146°
2026-05-04 15:10 1.13111 -72.44271 35043 ft 456 kts 146°
2026-05-04 15:11 1.05055 -72.39203 35050 ft 456 kts 146°
2026-05-04 15:11 0.99699 -72.35825 35043 ft 455 kts 146°
2026-05-04 15:12 0.94350 -72.32453 35036 ft 455 kts 146°
2026-05-04 15:12 0.88996 -72.29088 35037 ft 455 kts 146°
2026-05-04 15:13 0.83641 -72.25714 35037 ft 455 kts 146°
2026-05-04 15:13 0.78327 -72.22362 35038 ft 455 kts 145°
2026-05-04 15:14 0.72968 -72.18983 35040 ft 455 kts 146°
2026-05-04 15:14 0.67611 -72.15618 35035 ft 455 kts 146°
2026-05-04 15:15 0.62249 -72.12243 35034 ft 455 kts 146°
2026-05-04 15:15 0.56896 -72.08871 35032 ft 455 kts 146°
2026-05-04 15:16 0.48865 -72.03812 35032 ft 455 kts 146°
2026-05-04 15:17 0.40831 -71.98754 35036 ft 455 kts 146°
2026-05-04 15:17 0.32789 -71.93693 35033 ft 455 kts 146°
2026-05-04 15:18 0.27429 -71.90322 35034 ft 455 kts 146°
2026-05-04 15:19 0.19424 -71.85277 35034 ft 455 kts 146°
2026-05-04 15:19 0.11389 -71.80208 35032 ft 455 kts 146°
2026-05-04 15:20 0.06930 -71.77396 35032 ft 455 kts 146°
2026-05-04 15:20 0.01565 -71.74028 35032 ft 455 kts 146°
2026-05-04 15:21 -0.03801 -71.70663 35036 ft 455 kts 146°
2026-05-04 15:22 -0.11837 -71.65594 35034 ft 455 kts 146°
2026-05-04 15:22 -0.19875 -71.60522 35034 ft 455 kts 146°
2026-05-04 15:23 -0.25237 -71.57153 35034 ft 456 kts 146°
2026-05-04 15:23 -0.30603 -71.53790 35031 ft 455 kts 146°
2026-05-04 15:24 -0.41315 -71.47031 35031 ft 455 kts 146°
2026-05-04 15:25 -0.46675 -71.43661 35033 ft 455 kts 146°
2026-05-04 15:26 -0.54709 -71.38603 35034 ft 455 kts 146°
2026-05-04 15:26 -0.62746 -71.33547 35033 ft 455 kts 146°
2026-05-04 15:27 -0.70776 -71.28486 35032 ft 455 kts 146°
2026-05-04 15:28 -0.78801 -71.23429 35033 ft 455 kts 146°
2026-05-04 15:29 -0.86797 -71.18393 35031 ft 455 kts 146°
2026-05-04 15:30 -1.05543 -71.06582 35028 ft 455 kts 146°
2026-05-04 15:31 -1.13570 -71.01518 35026 ft 455 kts 146°
2026-05-04 15:32 -1.26960 -70.93096 35025 ft 455 kts 146°
2026-05-04 15:34 -1.40344 -70.84673 35025 ft 454 kts 146°
2026-05-04 15:34 -1.48363 -70.79613 35024 ft 454 kts 146°
2026-05-04 15:35 -1.56384 -70.74558 35018 ft 454 kts 146°
2026-05-04 15:36 -1.64380 -70.69525 35018 ft 455 kts 146°
2026-05-04 15:36 -1.69730 -70.66154 35017 ft 454 kts 146°
2026-05-04 15:37 -1.75072 -70.62781 35016 ft 454 kts 146°
2026-05-04 15:37 -1.80436 -70.59392 35019 ft 454 kts 146°
2026-05-04 15:38 -1.85783 -70.56023 35011 ft 455 kts 146°
2026-05-04 15:38 -1.91147 -70.52652 35007 ft 455 kts 146°
2026-05-04 15:39 -1.96497 -70.49280 35010 ft 455 kts 146°
2026-05-04 15:40 -2.04500 -70.44236 35012 ft 455 kts 146°
2026-05-04 15:40 -2.09859 -70.40849 35013 ft 455 kts 146°
2026-05-04 15:41 -2.15210 -70.37475 35009 ft 455 kts 146°
2026-05-04 15:41 -2.20563 -70.34100 35007 ft 455 kts 146°
2026-05-04 15:42 -2.25919 -70.30714 35002 ft 456 kts 146°
2026-05-04 15:42 -2.31289 -70.27323 35007 ft 456 kts 146°
2026-05-04 15:43 -2.36669 -70.23928 35009 ft 457 kts 146°
2026-05-04 15:43 -2.42052 -70.20539 35011 ft 457 kts 146°
2026-05-04 15:44 -2.47435 -70.17147 35020 ft 457 kts 146°
2026-05-04 15:44 -2.52809 -70.13752 35023 ft 457 kts 146°
2026-05-04 15:45 -2.58181 -70.10351 35021 ft 457 kts 146°
2026-05-04 15:45 -2.63533 -70.06976 35022 ft 457 kts 146°
2026-05-04 15:46 -2.68980 -70.03695 35020 ft 458 kts 153°
2026-05-04 15:46 -2.75105 -70.01943 35019 ft 462 kts 173°
2026-05-04 15:47 -2.81527 -70.01573 35011 ft 462 kts 175°
2026-05-04 15:47 -2.87958 -70.01226 35012 ft 463 kts 175°
2026-05-04 15:48 -2.94389 -70.00863 35016 ft 463 kts 175°
2026-05-04 15:48 -3.04040 -70.00317 35015 ft 463 kts 175°
2026-05-04 15:49 -3.10476 -69.99954 35018 ft 463 kts 175°
2026-05-04 15:49 -3.16918 -69.99598 35018 ft 463 kts 175°
2026-05-04 15:50 -3.23354 -69.99243 35018 ft 463 kts 175°
2026-05-04 15:50 -3.29794 -69.98883 35018 ft 463 kts 175°
2026-05-04 15:51 -3.36234 -69.98520 35018 ft 463 kts 175°
2026-05-04 15:51 -3.42682 -69.98172 35020 ft 464 kts 176°
2026-05-04 15:52 -3.49127 -69.97819 35020 ft 463 kts 175°
2026-05-04 15:52 -3.55522 -69.97462 35021 ft 463 kts 175°
2026-05-04 15:53 -3.61959 -69.97100 35024 ft 464 kts 175°
2026-05-04 15:53 -3.68402 -69.96739 35026 ft 464 kts 175°
2026-05-04 15:54 -3.74847 -69.96383 35029 ft 464 kts 175°
2026-05-04 15:54 -3.81285 -69.96025 35028 ft 463 kts 175°
2026-05-04 15:55 -3.87722 -69.95664 35022 ft 463 kts 175°
2026-05-04 15:55 -3.94163 -69.95304 35017 ft 463 kts 175°
2026-05-04 15:56 -4.00595 -69.94954 35013 ft 463 kts 175°
2026-05-04 15:56 -4.07031 -69.94595 35005 ft 463 kts 175°
2026-05-04 15:57 -4.13462 -69.94233 35003 ft 463 kts 175°
2026-05-04 15:57 -4.19845 -69.93494 35004 ft 460 kts 163°
2026-05-04 15:58 -4.25895 -69.91440 35055 ft 459 kts 159°
2026-05-04 15:58 -4.31923 -69.89298 35053 ft 459 kts 159°
2026-05-04 15:59 -4.37944 -69.87171 35049 ft 459 kts 159°
2026-05-04 15:59 -4.43967 -69.85045 35047 ft 459 kts 160°
2026-05-04 16:00 -4.49985 -69.82920 35037 ft 459 kts 159°
2026-05-04 16:00 -4.56006 -69.80790 35029 ft 459 kts 159°
2026-05-04 16:01 -4.61992 -69.78674 35026 ft 459 kts 159°
2026-05-04 16:01 -4.67044 -69.76889 35028 ft 459 kts 160°
2026-05-04 16:02 -4.74041 -69.74413 35042 ft 458 kts 159°
2026-05-04 16:03 -4.82076 -69.71577 35039 ft 457 kts 160°
2026-05-04 16:03 -4.88079 -69.69460 35037 ft 457 kts 160°
2026-05-04 16:04 -4.94075 -69.67343 35027 ft 457 kts 159°
2026-05-04 16:04 -5.03066 -69.64132 35029 ft 457 kts 159°
2026-05-04 16:05 -5.09057 -69.61981 35021 ft 457 kts 159°
2026-05-04 16:06 -5.18041 -69.58762 35024 ft 457 kts 159°
2026-05-04 16:07 -5.30000 -69.54483 35024 ft 458 kts 159°
2026-05-04 16:08 -5.42034 -69.50187 35020 ft 459 kts 159°
2026-05-04 16:09 -5.57076 -69.44802 35021 ft 459 kts 159°
2026-05-04 16:10 -5.69084 -69.40502 35022 ft 459 kts 159°
2026-05-04 16:11 -5.81134 -69.36183 35022 ft 460 kts 159°
2026-05-04 16:12 -5.99207 -69.29703 35030 ft 459 kts 159°
2026-05-04 16:13 -6.11263 -69.25379 35020 ft 461 kts 159°
2026-05-04 16:14 -6.23317 -69.21048 35022 ft 462 kts 159°
2026-05-04 16:16 -6.38425 -69.15551 35018 ft 462 kts 159°
2026-05-04 16:17 -6.53555 -69.10007 35015 ft 464 kts 159°
2026-05-04 16:18 -6.65710 -69.05572 35017 ft 465 kts 159°
2026-05-04 16:19 -6.80928 -69.00107 35015 ft 467 kts 160°
2026-05-04 16:20 -6.96252 -68.94662 35016 ft 468 kts 159°
2026-05-04 16:22 -7.11583 -68.89189 35011 ft 468 kts 159°
2026-05-04 16:23 -7.30008 -68.82627 35007 ft 468 kts 159°
2026-05-04 16:25 -7.48381 -68.76063 35016 ft 468 kts 159°
2026-05-04 16:26 -7.69865 -68.68373 35020 ft 468 kts 159°
2026-05-04 16:28 -7.85219 -68.62852 35017 ft 469 kts 159°
2026-05-04 16:29 -8.06762 -68.55074 35021 ft 471 kts 159°
2026-05-04 16:31 -8.22177 -68.49489 35008 ft 473 kts 159°
2026-05-04 16:32 -8.40813 -68.42751 35024 ft 474 kts 159°
2026-05-04 16:33 -8.53257 -68.38247 35019 ft 475 kts 160°
2026-05-04 16:34 -8.62594 -68.34862 35011 ft 475 kts 160°
2026-05-04 16:35 -8.81239 -68.28087 35007 ft 475 kts 160°
2026-05-04 16:36 -8.90560 -68.24712 34996 ft 477 kts 160°
2026-05-04 16:37 -8.99943 -68.21297 35002 ft 478 kts 160°
2026-05-04 16:38 -9.12478 -68.16744 35018 ft 478 kts 160°
2026-05-04 16:39 -9.28143 -68.11072 35009 ft 478 kts 161°
2026-05-04 16:40 -9.40723 -68.06773 35008 ft 478 kts 162°
2026-05-04 16:41 -9.56447 -68.01337 35007 ft 477 kts 161°
2026-05-04 16:43 -9.72114 -67.95908 34997 ft 475 kts 161°
2026-05-04 16:43 -9.81503 -67.92648 34989 ft 475 kts 161°
2026-05-04 16:44 -9.93377 -67.87029 35067 ft 474 kts 149°
2026-05-04 16:45 -9.99059 -67.83556 35053 ft 474 kts 149°
2026-05-04 16:46 -10.13153 -67.74968 35004 ft 474 kts 149°
2026-05-04 16:47 -10.24474 -67.68055 34988 ft 475 kts 149°
2026-05-04 16:48 -10.35814 -67.61136 34987 ft 475 kts 149°
2026-05-04 16:49 -10.47138 -67.54215 34985 ft 475 kts 149°
2026-05-04 16:50 -10.57552 -67.47957 34999 ft 475 kts 150°
2026-05-04 16:51 -10.66146 -67.42915 34994 ft 475 kts 150°
2026-05-04 16:52 -10.77501 -67.36163 34978 ft 474 kts 150°
2026-05-04 16:53 -10.86044 -67.31095 34975 ft 474 kts 150°
2026-05-04 16:54 -10.97424 -67.24318 34980 ft 474 kts 150°
2026-05-04 16:55 -11.14546 -67.14156 34977 ft 475 kts 150°
2026-05-04 16:56 -11.28758 -67.05667 34986 ft 475 kts 150°
2026-05-04 16:57 -11.37317 -67.00566 34979 ft 475 kts 150°
2026-05-04 16:58 -11.48725 -66.93764 34983 ft 475 kts 150°
2026-05-04 17:00 -11.65827 -66.83545 34972 ft 475 kts 150°
2026-05-04 17:01 -11.80039 -66.75031 34986 ft 474 kts 150°
2026-05-04 17:02 -11.91375 -66.68233 35001 ft 471 kts 150°
2026-05-04 17:03 -11.99850 -66.63167 34981 ft 470 kts 150°
2026-05-04 17:03 -12.08299 -66.58092 34985 ft 470 kts 150°
2026-05-04 17:04 -12.19569 -66.51324 34983 ft 470 kts 150°
2026-05-04 17:05 -12.30842 -66.44551 34979 ft 470 kts 150°
2026-05-04 17:06 -12.39299 -66.39463 34980 ft 470 kts 150°
2026-05-04 17:07 -12.46799 -66.34939 34980 ft 470 kts 150°
2026-05-04 17:07 -12.53396 -66.30960 34978 ft 470 kts 150°
2026-05-04 17:08 -12.61816 -66.25887 34982 ft 470 kts 150°
2026-05-04 17:09 -12.67451 -66.22485 34981 ft 470 kts 150°
2026-05-04 17:09 -12.73086 -66.19087 34983 ft 470 kts 150°
2026-05-04 17:10 -12.87162 -66.10586 34983 ft 470 kts 150°
2026-05-04 17:11 -12.92786 -66.07177 34977 ft 470 kts 150°
2026-05-04 17:12 -13.01234 -66.02060 34984 ft 470 kts 150°
2026-05-04 17:13 -13.15318 -65.93544 34984 ft 470 kts 150°
2026-05-04 17:14 -13.26553 -65.86722 34984 ft 470 kts 151°
2026-05-04 17:15 -13.34997 -65.81591 34982 ft 470 kts 150°
2026-05-04 17:16 -13.46254 -65.74761 34982 ft 469 kts 150°
2026-05-04 17:17 -13.57489 -65.67917 34971 ft 469 kts 150°
2026-05-04 17:18 -13.68718 -65.61072 35016 ft 469 kts 150°
2026-05-04 17:19 -13.79892 -65.54249 35030 ft 468 kts 150°
2026-05-04 17:20 -13.91095 -65.47406 35021 ft 468 kts 150°
2026-05-04 17:20 -13.99491 -65.42274 35001 ft 468 kts 150°
2026-05-04 17:21 -14.10682 -65.35445 34971 ft 467 kts 151°
2026-05-04 17:22 -14.16306 -65.32081 34973 ft 467 kts 151°
2026-05-04 17:23 -14.27560 -65.25347 34973 ft 468 kts 151°
2026-05-04 17:24 -14.35990 -65.20282 34980 ft 467 kts 151°
2026-05-04 17:25 -14.47220 -65.13523 34977 ft 467 kts 151°
2026-05-04 17:26 -14.58449 -65.06755 34977 ft 467 kts 151°
2026-05-04 17:27 -14.72471 -64.98302 34981 ft 467 kts 151°
2026-05-04 17:28 -14.83673 -64.91508 35009 ft 467 kts 150°
2026-05-04 17:29 -15.00252 -64.80968 34993 ft 467 kts 150°
2026-05-04 17:31 -15.14124 -64.72241 34969 ft 467 kts 150°
2026-05-04 17:32 -15.27971 -64.63476 34964 ft 467 kts 150°
2026-05-04 17:33 -15.39050 -64.56454 34956 ft 467 kts 150°
2026-05-04 17:34 -15.49204 -64.50032 34959 ft 467 kts 150°
2026-05-04 17:35 -15.63967 -64.40710 34961 ft 466 kts 150°
2026-05-04 17:36 -15.68621 -64.37785 34959 ft 467 kts 150°
2026-05-04 17:36 -15.74177 -64.34293 34965 ft 467 kts 150°
2026-05-04 17:37 -15.79693 -64.30814 34964 ft 467 kts 150°
2026-05-04 17:37 -15.85241 -64.27312 34960 ft 466 kts 150°
2026-05-04 17:38 -15.90791 -64.23811 34957 ft 466 kts 150°
2026-05-04 17:38 -15.96341 -64.20313 34962 ft 467 kts 150°
2026-05-04 17:39 -16.04673 -64.15048 34967 ft 467 kts 150°
2026-05-04 17:39 -16.10230 -64.11537 34967 ft 467 kts 150°
2026-05-04 17:40 -16.15787 -64.08022 34967 ft 467 kts 150°
2026-05-04 17:40 -16.21356 -64.04494 34969 ft 467 kts 150°
2026-05-04 17:41 -16.26877 -64.01000 34967 ft 467 kts 150°
2026-05-04 17:41 -16.32436 -63.97472 34970 ft 467 kts 150°
2026-05-04 17:42 -16.37991 -63.93942 34973 ft 467 kts 150°
2026-05-04 17:42 -16.43538 -63.90413 34971 ft 467 kts 150°
2026-05-04 17:43 -16.49093 -63.86883 34965 ft 467 kts 150°
2026-05-04 17:43 -16.54645 -63.83359 34965 ft 467 kts 150°
2026-05-04 17:44 -16.60205 -63.79834 34961 ft 468 kts 150°
2026-05-04 17:44 -16.65732 -63.76320 34965 ft 468 kts 150°
2026-05-04 17:45 -16.71291 -63.72784 34916 ft 468 kts 151°
2026-05-04 17:45 -16.74124 -63.70981 34040 ft 475 kts 150°
2026-05-04 17:45 -16.76932 -63.69193 32937 ft 483 kts 150°
2026-05-04 17:46 -16.79815 -63.67354 31970 ft 487 kts 150°
2026-05-04 17:46 -16.82696 -63.65518 30852 ft 484 kts 150°
2026-05-04 17:46 -16.85599 -63.63669 29598 ft 492 kts 150°
2026-05-04 17:46 -16.88502 -63.61818 28683 ft 483 kts 150°
2026-05-04 17:47 -16.91348 -63.60004 27460 ft 476 kts 150°
2026-05-04 17:47 -16.94151 -63.58216 26283 ft 468 kts 149°
2026-05-04 17:47 -16.96909 -63.56458 25173 ft 461 kts 149°
2026-05-04 17:47 -16.99627 -63.54730 24136 ft 453 kts 148°
2026-05-04 17:48 -17.02300 -63.53028 23009 ft 447 kts 147°
2026-05-04 17:48 -17.04939 -63.51346 21886 ft 440 kts 147°
2026-05-04 17:48 -17.07523 -63.49694 20866 ft 431 kts 147°
2026-05-04 17:48 -17.10053 -63.48070 19896 ft 423 kts 147°
2026-05-04 17:49 -17.12543 -63.46474 18967 ft 414 kts 146°
2026-05-04 17:49 -17.14970 -63.44916 18051 ft 406 kts 146°
2026-05-04 17:49 -17.17352 -63.43387 17209 ft 395 kts 147°
2026-05-04 17:49 -17.19676 -63.41900 16746 ft 390 kts 147°
2026-05-04 17:50 -17.21988 -63.40420 16230 ft 388 kts 147°
2026-05-04 17:50 -17.24284 -63.38948 15724 ft 387 kts 147°
2026-05-04 17:50 -17.26576 -63.37478 15205 ft 386 kts 148°
2026-05-04 17:50 -17.28862 -63.36012 14689 ft 385 kts 148°
2026-05-04 17:51 -17.31145 -63.34546 14164 ft 385 kts 148°
2026-05-04 17:51 -17.33427 -63.33083 13626 ft 385 kts 148°
2026-05-04 17:51 -17.35709 -63.31621 13064 ft 384 kts 149°
2026-05-04 17:51 -17.37983 -63.30164 12533 ft 383 kts 149°
2026-05-04 17:52 -17.40251 -63.28709 11988 ft 382 kts 149°
2026-05-04 17:52 -17.42510 -63.27259 11438 ft 381 kts 149°
2026-05-04 17:52 -17.44764 -63.25812 11063 ft 376 kts 149°
2026-05-04 17:52 -17.46971 -63.24379 10940 ft 370 kts 147°
2026-05-04 17:53 -17.48860 -63.22562 10956 ft 365 kts 129°
2026-05-04 17:53 -17.50352 -63.20527 10860 ft 352 kts 126°
2026-05-04 17:53 -17.51804 -63.18492 10640 ft 345 kts 126°
2026-05-04 17:53 -17.53228 -63.16498 10411 ft 339 kts 126°
2026-05-04 17:54 -17.54623 -63.14542 10187 ft 333 kts 126°
2026-05-04 17:54 -17.56004 -63.12610 9952 ft 329 kts 126°
2026-05-04 17:54 -17.57370 -63.10703 9624 ft 326 kts 126°
2026-05-04 17:54 -17.58737 -63.08804 9261 ft 325 kts 126°
2026-05-04 17:55 -17.60097 -63.06916 8881 ft 323 kts 126°
2026-05-04 17:55 -17.61449 -63.05039 8515 ft 322 kts 126°
2026-05-04 17:55 -17.62801 -63.03168 8148 ft 321 kts 126°
2026-05-04 17:55 -17.64150 -63.01314 7785 ft 319 kts 126°
2026-05-04 17:56 -17.65498 -62.99472 7426 ft 317 kts 126°
2026-05-04 17:56 -17.66839 -62.97651 7075 ft 315 kts 126°
2026-05-04 17:56 -17.68175 -62.95841 6718 ft 313 kts 126°
2026-05-04 17:56 -17.69504 -62.94044 6368 ft 310 kts 126°
2026-05-04 17:57 -17.70831 -62.92273 5999 ft 308 kts 126°
2026-05-04 17:57 -17.72150 -62.90512 5629 ft 306 kts 126°
2026-05-04 17:57 -17.73450 -62.88758 5259 ft 304 kts 126°
2026-05-04 17:57 -17.74890 -62.87151 4988 ft 300 kts 143°
2026-05-04 17:58 -17.76731 -62.86178 4997 ft 292 kts 166°
2026-05-04 17:58 -17.78682 -62.85961 4984 ft 273 kts 188°
2026-05-04 17:58 -17.80444 -62.86424 4981 ft 251 kts 210°
2026-05-04 17:58 -17.81866 -62.87387 4985 ft 238 kts 231°
2026-05-04 17:59 -17.82895 -62.88699 4987 ft 229 kts 248°
2026-05-04 17:59 -17.83501 -62.90206 4990 ft 220 kts 264°
2026-05-04 17:59 -17.83460 -62.93281 4760 ft 207 kts 294°
2026-05-04 18:00 -17.82968 -62.94670 4635 ft 208 kts 292°
2026-05-04 18:00 -17.82449 -62.96101 4514 ft 207 kts 297°
2026-05-04 18:00 -17.81946 -62.97501 4464 ft 203 kts 297°
2026-05-04 18:00 -17.81445 -62.98892 4493 ft 204 kts 297°
2026-05-04 18:01 -17.80943 -63.00279 4500 ft 202 kts 297°
2026-05-04 18:01 -17.80445 -63.01657 4503 ft 202 kts 297°
2026-05-04 18:01 -17.79827 -63.02956 4503 ft 196 kts 312°
2026-05-04 18:02 -17.77675 -63.04681 3921 ft 197 kts 329°
2026-05-04 18:02 -17.76511 -63.05439 3664 ft 196 kts 328°
2026-05-04 18:02 -17.75364 -63.06205 3410 ft 194 kts 327°
2026-05-04 18:02 -17.74252 -63.06953 3182 ft 185 kts 327°
2026-05-04 18:03 -17.73193 -63.07666 2928 ft 174 kts 327°
2026-05-04 18:03 -17.72217 -63.08323 2729 ft 159 kts 327°
2026-05-04 18:03 -17.71325 -63.08924 2516 ft 146 kts 327°
2026-05-04 18:03 -17.70508 -63.09474 2359 ft 134 kts 327°
2026-05-04 18:04 -17.69737 -63.09994 2188 ft 130 kts 327°
2026-05-04 18:04 -17.68976 -63.10506 2006 ft 129 kts 327°
2026-05-04 18:04 -17.67422 -63.11552 1678 ft 130 kts 329°
2026-05-04 18:05 -17.66666 -63.12061 1475 ft 129 kts 329°
2026-05-04 18:05 -17.65913 -63.12571 1300 ft 129 kts 328°
2026-05-04 18:05 -17.65198 -63.13054 1243 ft 112 kts 325°
2026-05-04 18:05 -17.64658 -63.13420 1230 ft 69 kts 327°
2026-05-04 18:06 -17.64101 -63.13791 1225 ft 40 kts 327°
2026-05-04 18:06 -17.63921 -63.13912 1225 ft 21 kts 325°
2026-05-04 18:06 -17.63919 -63.14022 1225 ft 16 kts 242°
2026-05-04 18:07 -17.63993 -63.14084 1227 ft 13 kts 176°
2026-05-04 18:07 -17.64074 -63.14043 1227 ft 16 kts 146°
2026-05-04 18:07 -17.64209 -63.13955 1227 ft 27 kts 148°
2026-05-04 18:07 -17.64344 -63.13862 1228 ft 17 kts 150°
2026-05-04 18:08 -17.64417 -63.13885 1228 ft 12 kts 236°
2026-05-04 18:08 -17.64475 -63.13987 1228 ft 17 kts 234°
2026-05-04 18:08 -17.64549 -63.14014 1228 ft 7 kts 160°
2026-05-04 18:08 -17.64591 -63.13988 1228 ft 7 kts 149°
2026-05-04 18:09 -17.64655 -63.13943 1228 ft 7 kts 144°
2026-05-04 18:09 -17.64725 -63.13926 1228 ft 4 kts 211°
2026-05-04 18:10 -17.64748 -63.13952 1228 ft 5 kts 236°
2026-05-04 18:10 -17.64763 -63.13977 1228 ft 3 kts 238°